{"data":{"norad_id":61907,"intl_designator":"2024-205P","name":"2024-205P","alt_names":[],"object_type":"PAYLOAD","status":"ACTIVE","operator":null,"country":"PRC","launch_date":"2024-11-11","launch_site_code":"JSC","launch_vehicle":null,"mission":null,"orbit_class":"UNKNOWN","rcs_meters":null,"size_class":null,"mass_kg":null,"dimensions":null,"purposes":[],"wikipedia_slug":null,"has_3d_model":false,"image_url":null,"decayed_at":null,"tle_current":{"epoch":"2026-09-22T23:54:10.156896Z","epoch_age_seconds":86551,"freshness":"FRESH","line1":"1 61907U 24205P   26265.99595089  .00002965  00000+0  14958-3 0  9992","line2":"2 61907  97.4045 336.3392 0013254  80.0667 280.2062 15.17823715103166","mean_motion":15.17823715,"eccentricity":0.0013254,"inclination_deg":97.4045,"raan_deg":336.3392,"arg_perigee_deg":80.0667,"mean_anomaly_deg":280.2062,"bstar":0.00014958,"rev_number":10316,"period_min":94.872677621854,"perigee_km":503.28655244708,"apogee_km":521.55203907589,"semimajor_km":6890.5562957615,"source":"CELESTRAK","updated_at":"2026-09-23T09:00:21.100827Z"}}}